sat.trackr.live / text

‹ back to catalog

STARLINK-34604

NORAD 64801 · 2025-150M

PAYLOAD ACTIVE UNKNOWN

§ Identity

Operator
Country
US
Launch date
2025-07-16
Launch site
AFWTR
Launch vehicle
Mass (kg)
RCS (m²)

Purposes: comms

External: N2YO · Heavens-Above · Gunter

§ Orbital elements

Epoch: 2026-05-25T04:15:19.337760Z

Period
96.11 min
Inclination
70.0001°
Eccentricity
0.0002721
Mean motion
14.98333962 rev/d
Perigee alt
570.2 km
Apogee alt
573.9 km
Semi-major
6,950.2 km
B*
2.1410e-4
RAAN
301.6116°
Arg perigee
269.0902°
Mean anomaly
90.9945°
Rev number
4,797

§ Raw data

STARLINK-346041 64801U 25150M   26145.17730715  .00002463  00000+0  21410-3 0  99962 64801  70.0001 301.6116 0002721 269.0902  90.9945 14.98333962 47978

JSON: /api/v1/satellites/64801 · /tle

For live sub-satellite position, see the globe view (requires WebGL).

§ Visibility from observer

Set your observer location to see the next 7 days of passes ≥ 10°. The values pass through the URL so the page stays shareable.

No JS? Fill the form by hand. The geolocation button needs JavaScript.